Location: Cabo di Oristano
(39.8500°N, 8.4333°E)
Time: 05:26:13
(UTC+00:00)

Daily predictions for brighter satellites

Satellite Brightness Start Highest point End
(mag) Time Altitude Azimuth Time Altitude Azimuth Time Altitude Azimuth
ATLAS 3B R/B 3.9 02:52:44 38° ENE 02:52:44 38° ENE 02:57:15 10° NE
Cosmos 2360 Rocket 4.2 02:58:48 23° ENE 02:58:48 23° ENE 03:01:28 10° NE
CZ-3 R/B 4.2 02:51:55 36° SW 03:00:21 46° S 03:10:04 10° ESE
Cosmos 2322 Rocket 4.1 03:19:09 23° NE 03:19:09 23° NE 03:21:10 10° NNE
Cosmos 2333 Rocket 3.0 03:33:16 48° ESE 03:33:43 49° ESE 03:39:15 10° NE
SL-16 R/B 4.3 03:44:54 16° N 03:44:54 16° N 03:46:02 10° NNE
H-2A R/B 3.4 03:38:16 10° NNE 03:42:45 35° E 03:47:17 10° SSE
Cosmos 1844 Rocket 3.0 03:44:29 64° E 03:44:29 64° E 03:49:44 10° SSE
BREEZE-M DEB (TANK) 3.2 03:54:00 67° NNE 03:54:15 69° NNE 04:05:46 10° ESE
COSMOS 2455 3.2 03:59:05 42° N 04:00:58 60° ENE 04:06:53 10° SE
Cosmos 2056 Rocket 4.4 03:59:17 28° N 04:01:43 46° ENE 04:06:47 10° SE
IRS-1C 4.4 03:57:26 10° NNE 04:02:45 66° ESE 04:08:01 10° S
Cosmos 1758 Rocket 4.4 04:00:46 10° SSE 04:04:54 47° E 04:09:02 10° NNE
Cosmos 1072 Rocket 4.5 03:59:21 10° S 04:05:38 84° E 04:12:03 10° N
Cosmos 2333 4.2 04:03:50 31° SSW 04:06:43 80° ESE 04:12:30 10° NNE
NOSS 3-1 (A) 3.3 04:07:42 56° N 04:07:42 56° N 04:12:28 10° NNE
Cosmos 192 4.3 04:11:40 67° N 04:12:16 78° ENE 04:17:11 10° SSE
Cosmos 1464 Rocket 3.9 04:09:14 10° S 04:15:22 89° W 04:21:37 10° N
BREEZE-M DEB (TANK) 3.1 04:20:35 39° E 04:20:35 39° E 04:23:21 10° ESE
Lacrosse 5 rocket 2.8 04:17:42 18° S 04:20:16 36° SE 04:24:14 10° ENE
Cosmos 1680 Rocket 3.9 04:21:34 45° NNW 04:21:34 45° NNW 04:25:30 10° N
ARIANE 5 R/B 2.5 04:16:06 10° NNE 04:21:20 89° ESE 04:26:33 10° SSW
SKYMED 2 4.5 04:17:40 10° SSE 04:21:49 48° ENE 04:25:08 16° N
Gbstr 26 Del rocket 3.9 04:23:25 40° SSW 04:23:25 40° SSW 04:27:45 10° SSE
Cosmos 1371 Rocket 4.1 04:22:55 30° NNW 04:25:41 78° ENE 04:31:02 10° SSE
Cosmos 1602 Rocket 3.4 04:27:13 10° S 04:31:39 86° W 04:36:03 10° N
Cosmos 2112 Rocket 4.1 04:32:37 50° W 04:33:05 52° WNW 04:38:15 10° N
IRS-P3 4.0 04:29:04 10° NNE 04:34:24 80° WNW 04:39:43 10° SSW
Geosat 3.9 04:32:43 10° NNE 04:37:46 83° WNW 04:42:45 10° SSW
Cosmos 2360 Rocket 2.7 04:40:39 37° NW 04:40:39 37° NW 04:45:40 10° N
ATLAS 3B R/B 3.4 04:40:02 33° WNW 04:41:13 34° NW 04:47:56 10° NNE
Timation 2 Rocket 4.4 04:39:53 36° WNW 04:41:43 44° WSW 04:47:58 10° S
SL-19 R/B 4.0 04:36:24 10° N 04:41:50 68° WNW 04:47:02 10° SSW
Cosmos-2242 2.8 04:41:16 40° NNW 04:42:41 68° W 04:46:51 10° S
Cosmos 2219 Rocket 2.1 04:38:45 10° SSW 04:44:22 70° WNW 04:50:03 10° NNE
Cosmos 1420 Rocket 3.9 04:42:05 29° NNW 04:44:48 66° WSW 04:50:03 10° S
Cosmos 2034 Rocket 3.9 04:38:36 10° S 04:44:57 78° W 04:51:17 10° N
Cosmos 1812 2.5 04:45:46 60° W 04:45:46 60° W 04:49:18 10° S
USA 281 3.2 04:40:11 10° NNE 04:46:39 61° WNW 04:53:04 10° SW
CZ-2D R/B 3.1 04:42:46 10° N 04:46:39 67° WNW 04:50:32 10° SSW
Cosmos 1844 4.0 04:46:15 36° WNW 04:47:39 42° WSW 04:52:50 10° S
Cosmos 1624 Rocket 3.9 04:47:18 25° NNW 04:50:19 66° WSW 04:55:28 10° S
Helios 1B rocket 4.0 04:48:48 10° NNE 04:52:29 35° E 04:56:08 10° SSE
OceanSat 1 rocket 4.5 04:47:47 10° N 04:52:35 80° WNW 04:57:18 10° SSW
Cosmos 2221 4.1 04:48:45 10° N 04:52:40 35° ENE 04:56:35 10° SE
USA 215 3.2 04:48:47 10° NE 04:55:20 83° NW 05:01:51 10° SW
ERS-2 3.1 04:52:44 10° NNE 04:55:30 37° E 04:58:15 10° S
Cosmos 2322 Rocket 3.6 05:01:01 20° NW 05:01:01 20° NW 05:04:13 10° N
FengYun 1-2 T 4.1 04:54:43 10° N 05:00:20 79° WNW 05:05:52 10° SSW
BREEZE-M R/B 3.8 04:56:23 22° NW 05:01:33 76° NNE 05:05:41 10° ESE
SL-08 R/B 3.2 04:57:42 10° S 05:02:26 79° WSW 05:07:06 10° NNW
SJ-6F 4.3 04:59:37 10° N 05:03:45 78° WNW 05:07:50 10° SSW
Cosmos 1782 2.6 05:05:18 10° NNW 05:09:09 70° W 05:13:00 10° S
COSMO-SKYMED 1 2.8 05:05:41 10° S 05:09:52 47° W 05:13:44 12° NNW
Helios 1A 4.1 05:10:16 10° SSW 05:13:34 23° W 05:13:55 23° W
Cosmos 2026 Rocket 4.0 05:09:45 10° N 05:16:09 84° W 05:22:28 10° S
COSMOS 2428 2.6 05:11:51 10° SSW 05:17:31 73° WNW 05:23:15 10° NNE
BlueWalker 3 1.9 05:15:36 22° NW 05:17:59 84° NE 05:21:47 10° SE
Cosmos 2333 Rocket 3.2 05:15:25 18° W 05:18:14 25° NW 05:22:57 10° N
Cosmos 1437 Rocket 4.1 05:15:30 10° SSE 05:19:01 41° E 05:22:30 10° NNE
SJ-12 4.3 05:17:44 10° N 05:21:29 38° WNW 05:25:14 10° SW
H-2A R/B 2.9 05:18:01 10° NNW 05:21:58 25° WNW 05:25:58 10° WSW
Cosmos 2195 Rocket 4.5 05:16:11 10° NNW 05:22:16 62° W 05:28:16 10° S
PSLV R/B 3.6 05:19:52 10° N 05:24:06 57° WNW 05:28:16 10° SSW
SeaSat 1 4.2 05:22:08 10° ESE 05:26:18 28° NE 05:30:29 10° N
Cosmos 1844 Rocket 4.1 05:26:13 15° W 05:27:23 16° W 05:30:45 10° SW
USA 267 3.9 05:21:45 10° ESE 05:27:58 48° NNE 05:34:13 10° NW
Cosmos 1110 Rocket 4.3 05:24:07 10° NNW 05:29:27 73° ENE 05:34:44 10° SSE
Cosmos 1092 Rocket 4.0 05:23:41 10° NNW 05:29:48 63° W 05:35:57 10° S
Milstar 3 Cent rocket 4.3 05:28:38 10° SW 05:32:55 21° S 05:39:09 10° SE
Cosmos 1825 Rocket 4.0 05:30:32 10° SSW 05:34:36 38° WNW 05:38:40 10° N
Cosmos 1842 Rocket 4.4 05:30:50 10° N 05:35:11 53° E 05:39:31 10° SSE
SL-08 RB Rocket 3.9 05:30:51 10° N 05:35:19 51° WNW 05:39:47 10° SSW
Cosmos 1634 Rocket 4.0 05:30:00 10° SSW 05:36:04 61° W 05:42:14 10° N
Cosmos 1544 2.6 05:33:22 10° S 05:36:32 83° W 05:39:46 10° N
Cosmos 2151 2.9 05:33:20 10° S 05:37:30 89° E 05:41:43 10° N
Cosmos 2285 Rocket 4.0 05:35:30 10° SSW 05:41:49 87° WNW 05:48:14 10° NNE
Cosmos 2278 Rocket 2.8 05:37:10 10° NNW 05:42:46 59° ENE 05:48:19 10° SE
Meteor 2-3 Rocket 4.3 05:37:59 10° SW 05:42:58 33° WNW 05:47:58 10° N
NOSS 0 Rocket 3.9 05:38:30 10° SSW 05:44:44 81° WNW 05:51:01 10° NNE
COSMOS 2455 4.1 05:42:17 11° WNW 05:46:22 21° WSW 05:50:40 10° SSW
ARGOS 3.7 05:41:30 10° N 05:46:24 37° WNW 05:51:15 10° SW
USA 229 DEB 4.1 05:41:52 10° WSW 05:47:34 37° NW 05:53:46 10° NNE
USA 229 4.1 05:41:54 10° WSW 05:47:37 37° NW 05:53:49 10° NNE
Cosmos 2237 Rocket 2.5 05:42:12 10° SSW 05:47:51 77° ESE 05:53:30 10° NNE
Cosmos 2142 Rocket 4.5 05:43:33 10° S 05:49:49 81° W 05:56:02 10° N
DELTA 2 DEB (DPAF) 4.1 05:48:09 10° S 05:52:23 63° WSW 05:56:40 10° NNW
Cosmos 1515 3.8 05:49:03 10° NNW 05:52:33 48° W 05:56:01 10° SSW
CZ-4C R/B 4.4 05:46:19 10° NNW 05:52:34 31° NE 05:59:48 10° ESE
Cosmos 2322 4.4 05:48:31 10° WSW 05:53:27 30° WNW 05:58:25 10° N
Lacrosse 5 rocket 2.2 05:55:05 10° W 05:58:54 31° NW 06:02:50 10° NNE
ARIANE 5 R/B 4.2 05:57:43 10° NW 05:59:37 12° WNW 06:01:30 10° W
AQUARIUS 4.2 05:56:22 10° NNE 06:00:52 88° ESE 06:05:19 10° SSW
Cosmos 1452 Rocket 3.8 05:56:12 10° NNW 06:01:15 50° WSW 06:06:17 10° S
CZ-2D R/B 4.1 06:00:00 10° NNW 06:03:02 25° WNW 06:06:05 10° SW
Cosmos 2279 Rocket 4.1 05:57:16 10° SSW 06:03:23 57° W 06:09:33 10° N
